Location: Vancouver
(49.2500°N, 123.1330°W)
Time: 11:11:45
(UTC-08:00)

deb Explorer IX - Visible Passes

Search period start: 11 February 2016 00:00
Search period end: 21 February 2016 00:00
Orbit: 544 x 1141 km, 38.8° (Epoch: 10 February)

Date Brightness Start Highest point End Pass type
(mag) Time Alt. Az. Time Alt. Az. Time Alt. Az.
13 Feb ? 06:38:11 10° SW 06:41:15 20° S 06:44:32 10° SE visible
14 Feb ? 04:38:44 10° SSE 04:38:44 10° SSE 04:39:13 10° SSE visible
14 Feb ? 06:21:42 10° SW 06:24:44 20° S 06:27:56 10° SE visible
15 Feb ? 06:05:13 10° SW 06:08:13 20° S 06:11:21 10° SE visible
16 Feb ? 05:49:20 13° SW 05:51:43 19° S 05:54:47 10° SE visible
17 Feb ? 05:33:42 16° SSW 05:35:12 19° S 05:38:14 10° SE visible
18 Feb ? 05:18:03 19° SSW 05:18:41 19° S 05:21:41 10° SE visible
19 Feb ? 05:02:24 19° S 05:02:24 19° S 05:05:09 10° SE visible
20 Feb ? 04:46:45 18° SSE 04:46:45 18° SSE 04:48:38 10° SE visible
20 Feb ? 06:30:10 10° SW 06:31:57 13° SSW 06:33:47 10° S visible
